Theta_e
319 320 320 320 320 319 318 318 318 318 319 319 319 319 320 319 319 319 319 319 319 320 320 320 320 320 318 308 310 332 346 341 325 311 310 310 309 308 306 306 317 322 323 324 325 325 325
320 320 320 320 319 319 318 318 319 319 319 319 319 319 319 318 318 318 318 318 318 318 319 321 321 321 316 306 320 337 330 322 315 311 308 311 310 310 307 309 314 324 324 323 324 324 324
320 320 320 320 319 319 318 319 319 319 319 318 318 318 318 318 318 318 318 317 317 318 320 323 321 321 310 307 322 325 315 313 312 312 308 310 311 310 320 320 326 324 319 322 321 322 320
321 320 319 319 319 319 319 319 319 319 319 318 318 317 317 318 318 318 318 317 317 319 322 321 323 320 306 316 323 316 313 312 313 313 313 312 312 310 315 326 319 319 320 314 319 319 320
321 320 319 319 319 319 319 319 319 319 319 318 318 317 317 318 318 318 317 316 319 322 322 324 321 317 308 321 315 317 316 311 311 312 313 313 311 311 317 316 315 312 312 311 314 318 316
322 321 320 319 319 318 318 318 318 318 318 318 318 317 316 317 317 317 315 316 318 320 321 322 319 309 313 311 315 314 316 313 311 311 309 308 308 307 305 310 298 308 304 310 312 315 315
321 321 320 320 319 319 318 318 318 318 318 318 318 316 316 316 316 315 314 313 310 310 310 306 306 305 307 313 315 312 313 312 311 309 305 307 304 302 305 308 304 305 305 310 312 315 314
321 321 320 320 320 318 318 317 317 317 317 317 317 316 316 316 316 314 312 309 307 308 302 308 307 306 308 311 305 312 312 308 306 303 306 305 302 306 305 303 303 303 303 308 313 316 314
321 321 320 319 319 317 317 317 317 317 316 316 315 316 316 315 314 311 309 308 310 309 302 305 306 306 308 310 306 309 310 308 305 303 303 303 304 305 304 302 302 303 305 309 310 312 315
317 319 320 319 318 317 317 317 317 317 317 316 315 315 315 314 307 308 306 309 310 309 300 301 307 308 308 309 307 313 313 310 306 303 303 304 306 304 304 303 305 303 306 312 310 309 304
316 317 317 318 318 317 317 317 317 317 317 316 315 315 315 313 309 306 307 311 312 309 291 305 305 311 308 308 310 309 313 310 305 304 304 302 304 304 303 305 307 309 311 313 311 310 309
315 315 315 316 316 316 317 316 317 316 316 316 316 316 314 312 312 311 311 311 312 298 289 303 304 303 304 306 307 309 309 312 310 305 304 304 307 306 305 310 315 315 312 311 311 310 303
314 314 314 314 314 314 314 313 313 314 315 316 315 315 313 315 307 310 311 311 300 293 302 302 303 303 302 302 304 307 306 305 302 299 299 303 304 306 315 311 313 314 311 302 301 301 300
312 312 313 313 313 313 313 312 312 313 313 314 312 309 312 314 315 312 310 305 293 297 300 307 305 304 299 303 303 304 304 302 305 303 301 299 298 304 307 311 309 310 307 303 295 297 302
310 312 311 311 312 312 312 312 312 312 313 312 309 314 311 312 312 311 307 295 296 298 304 302 304 298 299 302 303 303 303 302 305 306 301 299 301 308 307 309 312 307 303 308 305 304 303
309 310 312 311 311 311 311 311 312 312 312 311 313 308 308 311 313 310 302 292 297 303 304 304 299 302 298 300 301 302 302 306 305 307 310 305 302 307 307 311 310 310 310 304 307 298 296
308 309 310 311 312 311 311 311 312 312 312 309 309 302 307 312 311 307 296 296 298 303 305 303 302 301 302 301 302 301 303 305 308 306 308 308 307 305 307 306 307 306 306 305 308 306 299
308 308 309 310 311 311 311 311 311 311 310 308 307 296 311 312 303 301 299 299 300 303 307 306 307 305 304 305 304 301 303 305 310 308 304 309 308 302 303 308 308 308 307 310 303 301 305
307 308 308 309 311 311 310 310 311 310 310 309 302 301 313 312 297 299 301 301 304 303 303 305 305 306 308 303 303 304 305 310 312 309 309 311 306 300 301 305 308 306 305 306 309 309 304
306 306 308 308 310 311 310 310 310 310 310 309 302 296 305 309 305 301 301 302 301 307 305 306 306 308 306 306 309 306 306 310 313 314 316 316 307 306 301 304 306 305 306 307 308 304 304
305 306 306 307 308 310 311 310 310 309 309 309 303 297 302 299 302 303 304 303 301 301 306 307 306 307 307 305 306 305 306 311 312 314 311 315 305 303 304 305 305 306 305 306 304 307 302
305 305 306 307 307 308 311 310 310 309 309 306 300 300 304 302 302 302 301 302 301 303 304 304 305 307 310 307 309 308 308 309 310 311 310 311 303 303 302 305 306 304 306 306 306 305 303
306 305 305 306 307 308 310 310 310 309 309 306 304 306 306 300 303 301 302 303 303 306 308 308 307 305 308 312 315 314 316 312 311 311 309 309 306 304 298 302 304 301 305 306 306 306 306
305 305 305 306 306 307 309 310 310 309 309 308 307 308 305 297 303 302 304 305 305 307 306 310 312 308 313 320 318 314 314 314 314 311 312 307 306 305 299 302 294 304 307 308 307 307 307
305 305 305 305 306 307 308 310 310 309 309 308 310 307 305 297 303 303 305 305 308 309 308 310 313 316 321 317 311 308 309 310 308 310 309 312 308 301 299 296 301 304 305 306 306 307 308
305 305 305 305 306 306 307 309 310 310 309 308 311 310 308 301 298 305 304 305 304 304 307 311 319 316 319 313 309 304 301 304 303 306 310 310 313 306 299 296 295 305 307 311 310 303 310
305 305 305 305 306 306 306 308 310 310 309 308 308 312 309 302 305 307 304 303 306 305 302 306 306 313 318 311 306 305 304 306 301 303 305 306 306 303 299 300 304 309 310 311 302 307 310
306 305 305 305 306 306 306 307 309 310 309 308 307 312 308 304 305 308 308 305 305 306 301 305 309 314 318 308 306 306 306 305 305 305 306 306 305 304 304 302 299 312 309 306 313 309 311
305 306 305 305 305 305 306 305 308 310 309 309 306 314 314 307 307 311 312 313 312 311 307 307 307 312 316 312 312 308 305 306 308 302 310 304 308 307 309 308 312 313 313 312 310 311 311
Wind_Speed
6 4 5 7 7 7 8 8 9 10 11 13 14 17 20 21 21 21 21 23 22 22 21 16 12 6 2 1 3 3 9 10 8 5 6 5 4 4 3 4 5 7 7 10 15 18 17
6 6 5 5 6 7 8 8 9 10 11 12 14 16 18 20 21 22 23 22 21 22 20 14 7 1 1 2 2 5 11 11 8 6 5 4 3 4 5 5 4 8 16 12 12 14 9
6 6 6 6 6 7 7 8 9 10 12 13 16 17 19 21 23 24 25 24 21 20 17 7 2 2 2 1 1 6 8 2 4 6 5 4 3 2 6 9 9 12 15 12 8 6 8
7 6 6 6 7 7 8 9 10 12 13 14 17 19 21 22 23 25 27 24 23 17 7 3 6 2 4 1 4 6 3 3 1 2 2 4 3 4 4 16 6 8 6 8 6 5 5
7 7 6 6 7 8 8 9 10 11 13 15 16 19 21 23 25 26 29 24 17 5 1 5 2 1 1 3 3 5 5 4 4 2 3 5 3 5 9 13 8 1 8 6 10 7 4
8 7 7 7 6 8 9 8 10 11 12 13 15 17 21 23 25 27 30 20 3 2 4 3 3 2 2 2 1 4 5 6 4 7 4 3 3 6 5 9 7 11 6 8 13 13 5
9 8 7 6 6 6 8 8 9 10 11 12 14 16 19 22 26 28 16 3 6 1 6 5 3 4 4 6 3 4 5 5 4 3 5 3 5 11 19 13 4 11 9 13 5 4 9
9 8 8 7 7 6 6 8 9 10 11 12 14 16 19 22 25 23 5 7 4 5 11 6 9 8 7 2 3 3 9 6 4 5 6 4 8 6 8 10 8 8 13 8 8 8 3
6 9 9 9 8 7 7 6 9 10 11 12 13 16 19 23 26 4 3 8 3 5 5 6 5 4 2 10 6 5 11 5 4 6 7 6 3 10 6 7 8 7 8 15 10 9 6
11 7 8 9 9 8 8 8 8 10 11 12 12 14 16 26 1 6 3 1 7 6 3 3 1 2 5 4 4 5 9 5 3 8 6 5 7 8 8 7 9 8 7 17 22 11 5
11 10 8 7 5 8 8 9 8 9 11 12 11 12 12 6 7 6 5 10 5 3 1 3 2 3 4 5 5 6 3 3 7 7 5 4 10 8 7 5 11 6 13 17 14 8 9
9 11 10 9 9 8 7 7 8 9 10 11 12 11 9 1 4 8 10 11 3 3 2 3 2 3 6 1 2 3 4 2 3 4 3 4 1 4 2 7 12 20 22 12 7 3 5
8 8 9 9 8 8 7 8 10 11 12 12 11 13 6 2 4 2 7 3 2 3 2 1 1 1 4 7 5 4 7 8 7 7 6 3 5 4 17 17 8 8 7 4 3 4 3
8 9 8 7 8 8 8 9 11 12 14 12 12 16 6 6 3 3 3 2 4 1 3 3 2 4 6 8 6 5 8 10 5 4 3 6 5 11 10 6 11 14 2 4 7 5 2
10 8 9 9 8 8 9 9 11 12 12 11 15 2 4 2 4 5 3 3 4 4 2 6 6 2 4 5 4 5 9 13 10 11 5 5 2 3 2 5 10 7 7 5 8 2 3
9 10 8 9 9 10 9 9 10 11 11 9 5 4 4 2 7 3 2 4 3 3 4 1 2 2 5 4 7 9 9 7 10 14 11 1 2 3 5 3 13 4 11 5 3 6 5
8 9 10 9 9 10 10 9 10 12 11 6 2 5 3 3 4 2 4 5 4 6 4 3 2 3 3 3 5 5 7 4 12 9 12 5 2 2 2 3 7 7 5 6 5 2 3
6 8 9 10 9 9 10 9 11 13 11 2 2 4 3 2 3 1 3 4 2 4 2 4 3 5 3 1 3 5 7 4 6 12 11 4 3 3 2 2 1 3 4 5 4 6 0
7 7 8 9 10 8 9 9 10 12 7 2 2 3 1 3 4 3 2 3 3 3 3 2 3 4 3 2 2 6 4 0 7 11 12 9 1 4 2 4 3 2 3 4 7 3 6
6 8 8 9 10 8 8 9 10 11 11 2 2 2 1 2 1 2 2 1 3 3 5 4 4 4 4 2 3 3 3 1 3 3 5 6 4 3 6 3 3 6 8 4 2 3 6
7 8 8 9 10 10 8 9 10 10 13 2 1 0 3 3 4 3 2 1 1 5 3 3 3 2 5 1 2 4 2 3 4 6 4 2 5 2 7 3 2 7 9 5 3 7 2
7 7 7 8 9 9 9 8 9 10 11 2 2 1 1 3 3 3 4 2 2 3 4 3 3 7 6 2 2 4 2 1 1 3 2 1 3 1 6 5 5 7 6 9 7 5 3
7 7 7 7 9 9 9 7 8 8 7 1 1 0 2 1 1 3 3 3 3 3 8 12 9 8 7 2 4 10 8 1 3 2 3 4 6 3 2 4 4 5 5 3 4 3 4
7 6 7 7 8 9 9 8 6 6 6 2 0 1 2 1 3 2 2 3 6 5 6 8 7 3 2 11 1 4 9 9 9 8 2 6 4 4 2 2 4 3 2 4 2 4 9
9 9 7 7 8 8 9 8 6 6 5 2 1 2 2 2 2 4 4 3 8 7 5 7 10 5 9 5 3 3 1 2 5 9 5 4 6 5 4 2 5 3 6 7 8 5 13
10 10 8 7 8 8 8 8 6 5 4 2 2 2 1 2 2 2 3 3 3 4 4 5 4 8 3 2 2 4 4 3 2 3 7 7 6 6 4 4 6 1 4 5 4 4 14
11 10 9 8 9 8 8 8 8 4 4 2 3 3 2 1 1 1 1 3 2 2 4 4 9 7 3 2 3 3 3 1 7 8 6 3 3 5 3 3 3 2 8 7 4 2 13
11 11 10 9 9 8 7 7 8 4 4 2 3 4 1 3 5 3 2 3 4 2 3 7 4 1 3 2 1 2 2 3 4 1 1 4 5 3 3 3 6 5 7 7 3 2 9
11 11 11 11 9 8 8 8 8 5 3 2 2 3 2 3 4 2 7 11 8 8 5 3 4 3 3 3 1 1 2 2 4 3 1 3 2 3 5 0 2 1 2 3 2 4 7
Wind_Direction
299 307 330 331 336 338 343 342 342 342 339 336 336 335 331 330 330 327 323 319 319 319 317 322 313 318 246 258 254 20 137 134 143 155 150 146 159 146 168 107 105 98 98 74 99 90 94
280 293 309 325 329 334 338 339 341 340 338 336 335 334 330 328 328 324 320 317 319 314 316 318 303 263 249 209 31 128 133 143 161 154 146 135 179 164 94 63 29 113 104 100 87 88 109
274 282 297 313 325 331 337 338 342 340 340 338 336 334 331 329 327 325 320 319 316 312 313 316 194 186 264 319 337 141 148 136 174 166 157 163 180 226 118 106 129 118 103 96 70 99 114
265 277 292 305 314 327 334 340 342 340 340 340 338 335 331 329 327 323 318 320 312 311 324 147 173 194 248 17 125 143 185 93 210 210 51 99 145 91 85 130 101 108 115 141 173 134 124
261 271 282 294 306 316 326 331 336 338 339 339 338 333 329 328 326 323 317 320 316 329 126 156 209 316 245 124 210 176 188 153 150 201 38 102 54 88 129 131 119 123 159 163 178 202 136
252 258 268 285 297 310 318 326 330 334 338 338 337 331 325 327 326 324 319 310 263 288 209 227 244 230 195 133 273 152 189 164 165 143 126 134 113 143 144 190 176 177 164 180 187 197 207
240 252 263 270 287 304 316 323 326 331 334 337 336 331 326 328 326 324 332 357 360 353 24 286 304 290 279 300 240 189 169 167 133 163 168 125 198 188 189 206 176 157 150 163 156 175 186
249 248 254 261 271 288 305 316 323 327 330 333 333 331 329 329 326 322 312 64 71 311 304 271 246 260 272 350 335 209 153 163 164 164 137 155 228 199 155 170 162 156 146 126 98 143 147
291 263 254 252 260 271 283 299 312 318 322 328 329 329 330 332 323 7 348 114 343 189 256 295 219 223 210 171 200 222 178 145 157 156 183 190 153 150 166 176 181 203 191 167 138 129 120
350 355 278 262 258 262 273 286 300 309 314 320 324 326 332 329 35 339 292 54 324 196 303 277 215 180 150 205 202 200 188 150 160 188 169 227 166 205 179 202 198 216 167 151 141 156 161
358 10 7 345 293 280 280 290 300 305 308 312 316 320 333 349 310 299 337 335 341 211 41 17 115 106 134 203 130 198 183 125 176 164 182 199 178 167 218 238 181 64 140 136 144 107 138
11 11 14 15 3 352 351 324 319 318 311 308 309 310 339 160 274 257 318 317 205 243 249 8 114 157 163 230 134 112 166 178 145 164 221 250 304 207 186 38 109 125 115 104 101 140 236
360 9 14 6 4 358 352 346 325 321 323 309 305 299 296 267 257 20 319 307 212 240 339 50 77 148 207 184 189 146 177 180 176 182 226 221 214 124 119 100 133 164 151 107 157 203 264
1 1 353 347 356 358 356 349 333 324 320 311 311 302 248 222 247 291 290 191 225 253 270 4 350 276 204 172 197 159 169 201 221 190 167 202 198 173 181 185 179 173 158 173 198 204 178
1 353 354 356 350 352 348 340 334 326 320 325 314 292 265 253 203 199 203 208 226 210 324 330 317 201 207 207 202 173 195 208 220 199 226 176 203 122 170 169 156 178 214 92 109 54 205
353 357 344 348 351 353 342 334 341 326 321 342 323 308 263 335 161 194 180 245 253 232 314 298 274 275 187 176 186 194 178 188 209 203 208 214 175 73 161 123 49 175 130 157 135 160 225
347 349 353 340 339 345 342 340 341 335 323 337 313 302 20 167 180 201 213 234 267 257 242 224 274 287 256 154 203 198 202 201 201 179 197 189 294 111 205 7 152 148 158 66 95 315 230
338 345 346 348 337 338 341 348 346 345 328 16 324 271 59 264 177 309 190 208 265 279 275 262 245 245 258 26 226 227 216 243 182 152 178 178 110 86 63 37 248 71 137 158 230 176 89
332 334 341 341 344 337 345 346 344 351 345 321 283 285 32 264 201 195 233 249 258 274 279 305 270 211 247 265 228 215 208 136 175 164 164 175 156 113 98 161 151 112 91 103 102 125 175
318 328 331 338 340 337 339 340 343 352 345 295 274 275 227 199 318 264 192 238 266 304 262 268 284 307 280 248 200 284 218 69 136 118 78 99 110 185 178 173 113 145 136 142 122 180 153
298 312 323 329 333 340 325 335 341 347 342 266 261 211 340 182 203 252 296 332 323 319 277 262 239 247 286 314 319 232 186 153 103 155 65 110 114 116 44 337 127 133 150 154 125 129 288
284 290 308 320 325 332 333 333 342 353 347 241 256 240 165 289 289 214 195 217 241 279 251 235 232 345 289 166 197 284 28 45 230 115 107 339 107 305 63 15 143 110 109 120 114 132 115
267 273 291 307 319 327 332 325 343 353 349 283 123 242 275 342 292 212 207 210 244 350 258 253 294 315 289 297 292 292 243 340 268 188 105 81 131 87 107 358 143 138 161 125 139 174 164
261 269 279 295 303 316 324 323 330 345 3 286 241 271 212 279 273 229 18 316 270 268 271 301 311 258 342 320 239 96 110 101 77 58 106 115 104 73 116 13 220 81 259 234 189 204 197
254 260 271 281 291 304 318 322 313 332 344 299 316 264 206 254 288 278 359 278 292 288 248 250 265 289 324 294 152 143 14 105 49 39 25 67 126 92 160 191 309 194 183 174 195 205 192
249 251 257 267 279 290 305 313 307 319 327 290 274 244 263 265 206 17 331 322 332 321 285 248 325 322 284 266 170 160 181 109 127 55 35 58 81 110 178 170 230 137 152 159 173 256 179
241 246 251 256 267 279 295 312 317 298 312 281 277 269 254 272 260 292 46 336 333 319 282 304 340 343 359 223 170 163 156 165 161 164 168 93 39 114 156 210 265 199 155 172 207 55 168
237 237 243 248 257 271 284 300 314 282 321 315 290 274 291 239 275 237 279 299 313 264 333 346 284 101 327 246 227 129 152 154 113 82 217 140 144 146 131 203 241 147 144 205 52 76 163
230 230 235 239 246 260 275 292 305 291 327 285 279 328 327 262 297 287 269 259 251 252 311 286 318 284 2 283 21 187 155 148 169 150 74 175 259 161 209 208 95 237 0 27 188 133 166